[[{"header":{"parameterUnit":"m.s-1","parameterCategory":1,"la1":30.2991,"la2":30.254,"lo1":-89.0895,"lo2":-89.0444,"dy":0.0017,"dx":0.0017,"nx":28,"ny":28,"refTime":"2025-02-01T03:00:00:Z","depth":0,"parameterNumber":2,"parameterNumberName":"U-component_of_WINDS"},"data":[0,0,0,0,0,0,0,0,0,0,0,0,0,0,0,0,0,0,0,0,0,0,0,0,0,0,0,0,0,0,0,0,0,0,0,0,0,0,0,0,0,0,0,0,0,0,0,0,0,0,0,0,0,0,0,0,0,0,0.9477,0.9478,0,0.9496,0.9497,0.9497,0.9482,0.9482,0.9481,0.948,0.95,0.9501,0.9502,0,0,0,0,0,0,0,0,0,0,0,0,0,0.9429,0.943,0.9477,0.9478,0.9478,0.9496,0.9497,0.9497,0.9482,0.9482,0.9481,0.948,0.9499,0.9501,0.9502,0,0,0,0,0,0,0,0,0,0,0,0,0,0.945,0.9431,0.9477,0.9473,0.9473,0.9496,0.9497,0.9497,0.9482,0.9481,0.9481,0.948,0.9499,0.9501,0.9502,0.9531,0,0,0.9507,0.9508,0,0,0,0,0,0,0,0,0.9448,0.9451,0.9473,0.9473,0.9473,0.9486,0.9487,0.9509,0.9483,0.9479,0.948,0.9479,0.9496,0.9498,0.9503,0.9532,0.9533,0.9507,0.9508,0.9509,0.951,0,0,0,0,0,0,0,0.9447,0.945,0.9485,0.9474,0.9473,0.947,0.9472,0.9491,0.9492,0.9479,0.9478,0.948,0.9496,0.9502,0.9504,0.9533,0.9507,0.9509,0.951,0.951,0.9589,0.959,0,0,0,0,0,0,0.9446,0.9449,0.9484,0.9486,0.9458,0.9472,0.9474,0.9483,0.9492,0.9493,0.9481,0.948,0.9499,0.9502,0.9504,0.954,0.9509,0.9511,0.9512,0.9588,0.9589,0.959,0,0,0,0,0,0,0.9445,0.9449,0.9484,0.9467,0.9471,0.9474,0.9484,0.9484,0.949,0.9494,0.9494,0.9487,0.9499,0.9502,0.9525,0.9541,0.9511,0.9513,0.9586,0.9588,0.959,0.9611,0,0,0,0,0,0,0.9444,0.9449,0.946,0.9468,0.9472,0.9504,0.9485,0.9485,0.9493,0.9491,0.95,0.95,0.9498,0.9523,0.9527,0.9542,0.9514,0.9585,0.9587,0.9589,0.9609,0.9614,0.9617,0,0,0,0,0,0.9442,0.9465,0.946,0.9465,0.9486,0.9505,0.9507,0.9505,0.9494,0.9505,0.9508,0.95,0.9538,0.9525,0.953,0.9546,0.9584,0.9587,0.9589,0.9608,0.9613,0.9617,0,0,0,0,0,0,0.9458,0.9466,0.9461,0.9487,0.9495,0.9502,0.9516,0.951,0.9522,0.952,0.9516,0.9518,0.9543,0.9547,0.9532,0.9575,0.9559,0.9563,0.9572,0.9577,0.9581,0.958,0.9516,0,0,0,0,0,0.9465,0.948,0.9485,0.9508,0.9512,0.9514,0.9522,0.9519,0.9528,0.9531,0.9536,0.9544,0.9559,0.9568,0.9581,0.961,0.9612,0.9623,0.9627,0.9631,0.9634,0.965,0.9656,0.9598,0.9598,0.9598,0,0,0.9479,0.9485,0.9494,0.9511,0.9518,0.9533,0.9517,0.9534,0.9545,0.9534,0.9556,0.956,0.9569,0.9596,0.9608,0.96,0.965,0.9634,0.9636,0.9638,0.9653,0.9659,0.9664,0.96,0.96,0.9599,0,0,0.9513,0.9518,0.9538,0.9545,0.9555,0.9556,0.956,0.9569,0.9571,0.9593,0.9585,0.9599,0.9623,0.9631,0.9638,0.9676,0.9669,0.968,0.9701,0.9717,0.9722,0.9726,0.974,0.9745,0.9683,0.9683,0.9683,0,0.9528,0.9552,0.9549,0.9567,0.9575,0.9566,0.9586,0.9593,0.9607,0.9613,0.9604,0.9635,0.9641,0.9669,0.9679,0.9684,0.969,0.9679,0.9721,0.9725,0.9729,0.9743,0.9748,0.9685,0.9685,0.9684,0.9684,0,0.9571,0.9587,0.9602,0.9616,0.9626,0.9645,0.9646,0.9656,0.9653,0.9655,0.9679,0.9686,0.9701,0.9707,0.9704,0.9736,0.9731,0.9722,0.9706,0.9736,0.9749,0.9754,0.9687,0.9686,0.9686,0.9685,0,0,0.9615,0.9628,0.9634,0.964,0.9651,0.9664,0.9683,0.9698,0.9707,0.9717,0.9734,0.9755,0.9747,0.9755,0.9753,0.9768,0.9798,0.9757,0.9757,0.9765,0.9835,0.9842,0.9848,0.9794,0.9795,0.9796,0.9834,0,0.9649,0.9683,0.9681,0.9713,0.9728,0.972,0.9737,0.9746,0.9749,0.9763,0.9766,0.9781,0.9769,0.9774,0.9788,0.9792,0.9812,0.9789,0.981,0.9811,0.9808,0.9855,0.9862,0.9898,0.9839,0.984,0.9841,0,0.9694,0.9706,0.9739,0.9749,0.9755,0.977,0.9785,0.9798,0.9808,0.9809,0.9819,0.9815,0.9835,0.9819,0.9847,0.9831,0.9839,0.9843,0.9844,0.9846,0.9828,0.9859,0.9909,0.9915,0.9848,0.9848,0.9847,0,0.9723,0.9748,0.9771,0.9777,0.9789,0.98,0.9805,0.9815,0.9824,0.9837,0.9843,0.9858,0.9866,0.9878,0.9878,0.9866,0.9907,0.989,0.9909,0.9909,0.9918,0.9918,0.9972,0.9923,0.9923,0.9923,0.9923,0,0.9762,0.9783,0.9785,0.9799,0.9822,0.9821,0.9844,0.9849,0.9857,0.9873,0.9867,0.9882,0.9881,0.9896,0.9897,0.9921,0.9924,0.9926,0.9926,0.9927,0.9927,0.9933,0.993,0.9924,0.9924,0.9924,0.9923,0,0.9799,0.9801,0.9826,0.9835,0.9838,0.9855,0.9864,0.9878,0.988,0.99,0.9905,0.9909,0.9927,0.9928,0.9949,0.9949,0.9978,0.9975,0.9975,0.9974,0.9993,0.9992,1.0053,1.0062,1.0007,1.0008,1.0008,0,0.9823,0.9839,0.9851,0.9861,0.9867,0.9883,0.9893,0.9893,0.9904,0.9918,0.993,0.9947,0.9961,0.999,0.9995,1.0011,1.0009,1.0029,1.0011,1.0012,1.001,1.0009,1.0011,1.0033,1.0033,1.0034,1.0034,0,0.9868,0.9868,0.9883,0.9898,0.991,0.9922,0.9934,0.9942,0.9943,0.9956,0.9974,0.9985,1.0006,1.0024,1.004,1.0046,1.0041,1.004,1.0045,1.0047,1.0046,1.0047,0.9985,1.0039,1.0038,1.0038,1.0038,1.0037,0.9899,0.9914,0.9924,0.9941,0.995,0.9961,0.9975,0.998,0.9995,1.0013,1.0011,1.0032,1.0043,1.0064,1.0071,1.0088,1.0081,1.0088,1.009,1.0092,1.0095,1.0043,1.0091,1.009,1.009,1.009,1.009,0,0.9944,0.9951,0.9966,0.9983,0.9996,0.999,1.0003,1.0015,1.0033,1.0044,1.0058,1.0079,1.0097,1.0104,1.0121,1.0133,1.0131,1.0137,1.0136,1.0138,1.01,1.0094,1.0138,1.0138,1.0138,1.0138,1.0138,1.0138,0.9969,0.9993,0.9995,1.0024,1.003,1.0051,1.0058,1.0069,1.0078,1.0102,1.0117,1.0121,1.0131,1.0149,1.0165,1.0167,1.0173,1.0181,1.0182,1.0146,1.0141,1.0136,1.013,1.0182,1.0182,1.0219,1.0219,1.022]},{"header":{"parameterUnit":"m.s-1","parameterCategory":1,"la1":30.2991,"la2":30.254,"lo1":-89.0895,"lo2":-89.0444,"dy":0.0017,"dx":0.0017,"nx":28,"ny":28,"refTime":"2025-02-01T03:00:00:Z","depth":0,"parameterNumber":3,"parameterNumberName":"V-component_of_WINDS"},"data":[0,0,0,0,0,0,0,0,0,0,0,0,0,0,0,0,0,0,0,0,0,0,0,0,0,0,0,0,0,0,0,0,0,0,0,0,0,0,0,0,0,0,0,0,0,0,0,0,0,0,0,0,0,0,0,0,0,0,-2.9111,-2.9112,0,-2.9166,-2.9167,-2.9167,-2.9157,-2.9156,-2.9155,-2.9154,-2.9208,-2.921,-2.9212,0,0,0,0,0,0,0,0,0,0,0,0,0,-2.8996,-2.8998,-2.9111,-2.9112,-2.9113,-2.9166,-2.9167,-2.9168,-2.9157,-2.9156,-2.9155,-2.9154,-2.9207,-2.921,-2.9212,0,0,0,0,0,0,0,0,0,0,0,0,0,-2.9048,-2.8999,-2.9111,-2.9114,-2.9115,-2.9166,-2.9167,-2.9168,-2.9157,-2.9156,-2.9154,-2.9153,-2.9206,-2.9209,-2.9213,-2.9264,0,0,-2.9224,-2.9225,0,0,0,0,0,0,0,0,-2.9045,-2.9052,-2.9113,-2.9114,-2.9115,-2.9153,-2.9146,-2.92,-2.9158,-2.9141,-2.9154,-2.9152,-2.9191,-2.9195,-2.9209,-2.9267,-2.9269,-2.9224,-2.9226,-2.9227,-2.9228,0,0,0,0,0,0,0,-2.9041,-2.905,-2.9133,-2.9114,-2.9115,-2.9112,-2.9118,-2.9156,-2.9173,-2.9142,-2.9142,-2.9149,-2.9191,-2.9205,-2.921,-2.927,-2.9224,-2.9227,-2.9229,-2.923,-2.9374,-2.9375,0,0,0,0,0,0,-2.9037,-2.9047,-2.9131,-2.9135,-2.9076,-2.9115,-2.9122,-2.9142,-2.9173,-2.9176,-2.915,-2.9148,-2.92,-2.9206,-2.9212,-2.9275,-2.9227,-2.9231,-2.9233,-2.9372,-2.9374,-2.9376,0,0,0,0,0,0,-2.9035,-2.9045,-2.9129,-2.9091,-2.9101,-2.9119,-2.9142,-2.9144,-2.9159,-2.9179,-2.9181,-2.9162,-2.9199,-2.9207,-2.9252,-2.9276,-2.9232,-2.9236,-2.937,-2.9373,-2.9375,-2.94,0,0,0,0,0,0,-2.9031,-2.9044,-2.9064,-2.9091,-2.9103,-2.9168,-2.9144,-2.9146,-2.9165,-2.9163,-2.919,-2.9193,-2.9199,-2.9246,-2.9255,-2.928,-2.9238,-2.9368,-2.9371,-2.9374,-2.9397,-2.9403,-2.9408,0,0,0,0,0,-2.9027,-2.9068,-2.9065,-2.9075,-2.9129,-2.917,-2.9177,-2.9183,-2.9167,-2.9187,-2.92,-2.9192,-2.9272,-2.9251,-2.9261,-2.9287,-2.9366,-2.937,-2.9374,-2.9395,-2.9402,-2.9408,0,0,0,0,0,0,-2.9041,-2.9071,-2.9068,-2.9119,-2.9142,-2.9168,-2.9193,-2.919,-2.9217,-2.9214,-2.922,-2.9226,-2.9272,-2.9284,-2.926,-2.9339,-2.9317,-2.9323,-2.9329,-2.9337,-2.9342,-2.9338,-2.9241,0,0,0,0,0,-2.9051,-2.9083,-2.9107,-2.9149,-2.9161,-2.9175,-2.9193,-2.9196,-2.922,-2.9229,-2.9245,-2.9268,-2.9299,-2.9318,-2.9347,-2.9399,-2.9405,-2.9422,-2.9428,-2.9432,-2.9437,-2.9467,-2.9475,-2.9388,-2.9388,-2.9388,0,0,-2.907,-2.909,-2.9109,-2.9152,-2.9171,-2.9203,-2.9183,-2.9218,-2.9242,-2.9234,-2.9278,-2.9291,-2.9317,-2.9366,-2.9388,-2.9377,-2.9463,-2.9437,-2.9441,-2.9443,-2.9472,-2.948,-2.9487,-2.9391,-2.939,-2.939,0,0,-2.9121,-2.9139,-2.9177,-2.9197,-2.9225,-2.9235,-2.9244,-2.9271,-2.9279,-2.9324,-2.9319,-2.9347,-2.9399,-2.9418,-2.9434,-2.9495,-2.9489,-2.9504,-2.9533,-2.9562,-2.9569,-2.9575,-2.9597,-2.9605,-2.9509,-2.9509,-2.9509,0,-2.9141,-2.919,-2.9197,-2.9233,-2.9252,-2.9248,-2.9287,-2.9305,-2.9341,-2.9354,-2.9342,-2.9408,-2.9425,-2.9479,-2.9494,-2.9507,-2.9518,-2.9501,-2.9568,-2.9574,-2.9579,-2.9601,-2.9609,-2.9511,-2.9511,-2.9511,-2.951,0,-2.9213,-2.9248,-2.9275,-2.9311,-2.9334,-2.9371,-2.9383,-2.9405,-2.9406,-2.9417,-2.9463,-2.9483,-2.9517,-2.953,-2.9531,-2.9584,-2.9577,-2.9566,-2.9544,-2.9589,-2.9609,-2.9618,-2.9513,-2.9513,-2.9512,-2.9512,0,0,-2.9274,-2.9315,-2.9325,-2.9342,-2.9374,-2.94,-2.9438,-2.9472,-2.9491,-2.9516,-2.9547,-2.9592,-2.9583,-2.9602,-2.9605,-2.963,-2.9678,-2.9616,-2.9617,-2.9627,-2.9739,-2.9747,-2.9757,-2.9674,-2.9676,-2.9677,-2.9737,0,-2.9328,-2.9395,-2.9403,-2.9462,-2.9494,-2.9491,-2.9524,-2.9547,-2.9558,-2.9587,-2.9599,-2.9632,-2.9617,-2.9628,-2.9653,-2.9667,-2.97,-2.9662,-2.9704,-2.9705,-2.9697,-2.9767,-2.9775,-2.9831,-2.9745,-2.9746,-2.9747,0,-2.9401,-2.943,-2.9492,-2.9521,-2.9535,-2.9564,-2.9597,-2.9624,-2.9651,-2.9657,-2.9679,-2.968,-2.9718,-2.9695,-2.9748,-2.9722,-2.974,-2.9749,-2.9751,-2.9755,-2.9729,-2.9773,-2.9849,-2.9857,-2.976,-2.9759,-2.9758,0,-2.9439,-2.9494,-2.9539,-2.9553,-2.9588,-2.9609,-2.9624,-2.9649,-2.9669,-2.9698,-2.9711,-2.9743,-2.9761,-2.9786,-2.9795,-2.9777,-2.9848,-2.9825,-2.9855,-2.9854,-2.9869,-2.9868,-2.9949,-2.988,-2.988,-2.988,-2.988,0,-2.9499,-2.9538,-2.9557,-2.9584,-2.9628,-2.9637,-2.9679,-2.9693,-2.9716,-2.9746,-2.9746,-2.9774,-2.9784,-2.9814,-2.9822,-2.9865,-2.9873,-2.9879,-2.9881,-2.988,-2.9879,-2.9891,-2.9887,-2.9882,-2.9882,-2.9881,-2.9881,0,-2.9549,-2.9564,-2.9613,-2.9642,-2.9651,-2.9681,-2.9706,-2.9733,-2.9745,-2.9783,-2.9793,-2.9811,-2.9847,-2.9859,-2.9901,-2.9906,-2.9957,-2.9955,-2.9948,-2.9949,-2.9978,-2.9975,-3.0069,-3.0082,-3.0005,-3.0005,-3.0006,0,-2.9587,-2.9617,-2.965,-2.9671,-2.9687,-2.9721,-2.9742,-2.9752,-2.9775,-2.9808,-2.9831,-2.9866,-2.9895,-2.9952,-2.9969,-3.0002,-3.0001,-3.0032,-3.0006,-3.0004,-3.0002,-3.0001,-3.0004,-3.0037,-3.0037,-3.0038,-3.0039,0,-2.9652,-2.9658,-2.9689,-2.9724,-2.975,-2.9777,-2.9804,-2.982,-2.9835,-2.986,-2.9897,-2.992,-2.9964,-3.0,-3.0034,-3.0049,-3.0047,-3.0047,-3.0056,-3.0055,-3.005,-3.0054,-2.9962,-3.0045,-3.0044,-3.0044,-3.0043,-3.0043,-2.9697,-2.9724,-2.9752,-2.9788,-2.9809,-2.9834,-2.9861,-2.9877,-2.9909,-2.9947,-2.9951,-2.9991,-3.0018,-3.0063,-3.008,-3.0112,-3.0103,-3.0116,-3.0119,-3.0122,-3.0124,-3.0045,-3.0118,-3.0118,-3.0118,-3.0118,-3.0117,0,-2.9763,-2.9781,-2.9814,-2.9852,-2.988,-2.9876,-2.9906,-2.9929,-2.9965,-2.999,-3.002,-3.0063,-3.0098,-3.0118,-3.0153,-3.0175,-3.0175,-3.0184,-3.0182,-3.0186,-3.013,-3.0119,-3.0183,-3.0183,-3.0183,-3.0183,-3.0183,-3.0183,-2.98,-2.9846,-2.9856,-2.9912,-2.993,-2.9971,-2.9988,-3.0011,-3.0032,-3.0081,-3.011,-3.0124,-3.0148,-3.0185,-3.0217,-3.0222,-3.0235,-3.0245,-3.0249,-3.0196,-3.019,-3.0183,-3.0173,-3.0248,-3.0248,-3.0303,-3.0304,-3.0304]}]]